This is the latest recevied weather packets stored in our database for station/object n3uvr. If no packets are shown the sender has not sent any weather packets the latest 10 day(s).
| Time | Temp. | Humidity | Pressure | Rain* | Wind** | Luminosity | Snow |
|---|---|---|---|---|---|---|---|
| 1777925220 | 22.22° C | 37% | 1007.1 hPa | 0 mm | - | 830 W/m² | - |
| 1777919808 | 21.67° C | 36% | 1007.8 hPa | 0 mm | - | 939 W/m² | - |
| 1777917423 | 21.11° C | 36% | 1008.4 hPa | 0 mm | - | 958 W/m² | - |
| 1777916819 | 21.11° C | 37% | 1008.5 hPa | 0 mm | - | 997 W/m² | - |
| 1777914433 | 20° C | 36% | 1008.9 hPa | 0 mm | - | 949 W/m² | - |
| 1777913801 | 20° C | 38% | 1009.1 hPa | 0 mm | - | 935 W/m² | - |
| 1777911985 | 19.44° C | 38% | 1009.6 hPa | 0 mm | - | 933 W/m² | - |
| 1777911391 | 18.33° C | 39% | 1009.7 hPa | 0 mm | - | 918 W/m² | - |
| 1777910791 | 18.33° C | 38% | 1009.9 hPa | 0 mm | - | 912 W/m² | - |
| 1777910176 | 17.78° C | 40% | 1010 hPa | 0 mm | - | 877 W/m² | - |
| 1777909563 | 17.22° C | 40% | 1010 hPa | 0 mm | - | 863 W/m² | - |
| 1777908956 | 16.67° C | 40% | 1010.1 hPa | 0 mm | - | 858 W/m² | - |
| 1777908359 | 16.11° C | 42% | 1010.1 hPa | 0 mm | - | 179 W/m² | - |
| 1777907751 | 16.11° C | 41% | 1010.2 hPa | 0 mm | - | 121 W/m² | - |
| 1777906542 | 15° C | 44% | 1010.4 hPa | 0 mm | - | 134 W/m² | - |
| 1777905953 | 14.44° C | 45% | 1010.7 hPa | 0 mm | - | 202 W/m² | - |
| 1777905358 | 13.89° C | 46% | 1010.7 hPa | 0 mm | - | 121 W/m² | - |
| 1777904765 | 13.33° C | 47% | 1010.8 hPa | 0 mm | - | 153 W/m² | - |
| 1777904175 | 12.78° C | 47% | 1010.9 hPa | 0 mm | - | 211 W/m² | - |
| 1777901774 | 11.67° C | 51% | 1011 hPa | 0 mm | - | 149 W/m² | - |
| 1777900576 | 10.56° C | 54% | 1011 hPa | 0 mm | - | 83 W/m² | - |
| 1777899960 | 9.44° C | 60% | 1011.1 hPa | 0 mm | - | 65 W/m² | - |
| 1777899353 | 8.89° C | 65% | 1011.2 hPa | 0 mm | - | 47 W/m² | - |
| 1777898745 | 7.78° C | 67% | 1011.2 hPa | 0 mm | - | 42 W/m² | - |
| 1777898141 | 7.22° C | 68% | 1011.3 hPa | 0 mm | - | 33 W/m² | - |
* Rain latest hour (hover to see other rain measurements)
** Current wind speed in m/s (hover to see current wind gust speed)